Home > Weather > Owensboro > Past weeks

Flag for U.S.A. Weather for the Past 2 Weeks in Owensboro, Kentucky, U.S.A.

Now
23 °F

Overcast.


Feels Like: 17 °F
Forecast: 19 / 31 °F
Wind: 5 mph from Northeast

Location: Owensboro / Daviess

Current Time: Feb 11, 2016 at 3:58:06 AM

Latest Report: Feb 11, 2016 at 2:56 AM


Visibility: 10 mi

Pressure: 30.21 "Hg

Humidity: 85%

Dew point: 19 °F

Location of OwensboroLocation

Historic Weather in Owensboro — Graph

°F

Owensboro Temperature Yesterday

Maximum temperature yesterday: 25 °F (at 3:56 PM)
Minimum temperature yesterday: 15 °F (at 7:56 AM)
Average temperature yesterday: 20 °F

High & Low Weather Summary for the Past Weeks

 TemperatureHumidityPressure
High66 °F (Feb 2, 3:01 PM)100% (Feb 2, 5:56 PM)30.46 "Hg (Feb 2, 5:56 PM)
Low15 °F (Feb 10, 7:56 AM)35% (Feb 6, 3:56 PM)29.56 "Hg (Feb 2, 9:56 PM)
Average39 °F71%30.03 "Hg
* Reported Jan 27 2:56 AM — Feb 11 2:56 AM, Owensboro, Weather by CustomWeather, © 2016

Note: Actual official high and low records may vary slightly from our data, if they occured in-between our weather recording intervals... More about our weather records

Advertising

Owensboro Weather History for the Previous 24 Hours

 ConditionsComfort  
Time TempWeatherWind HumidityBarometerVisibility
2:56 AM
Thu, Feb 11
23 °FOvercast.5 mph85%30.21 "Hg10 mi
1:56 AM23 °FOvercast.No wind81%30.21 "Hg10 mi
12:56 AM22 °FOvercast.No wind85%30.20 "Hg10 mi
11:56 PM
Wed, Feb 10
22 °FOvercast.No wind85%30.22 "Hg10 mi
10:56 PM22 °FOvercast.No wind85%30.22 "Hg10 mi
9:56 PM22 °FOvercast.5 mph85%30.23 "Hg10 mi
8:56 PM21 °FPassing clouds.8 mph89%30.22 "Hg10 mi
7:56 PM22 °FPassing clouds.10 mph85%30.21 "Hg10 mi
6:56 PM23 °FLight snow. Ice fog.13 mph85%30.21 "Hg4 mi
5:56 PM23 °FLight snow. Mostly cloudy.13 mph81%30.20 "Hg4 mi
4:56 PM25 °FLight snow. Mostly cloudy.12 mph62%30.17 "Hg9 mi
3:56 PM25 °FSunny.9 mph55%30.15 "Hg10 mi
2:56 PM24 °FPassing clouds.12 mph55%30.16 "Hg10 mi
1:56 PM24 °FPassing clouds.13 mph55%30.17 "Hg10 mi
12:56 PM22 °FScattered clouds.14 mph57%30.18 "Hg10 mi
11:56 AM22 °FScattered clouds.12 mph55%30.19 "Hg10 mi
10:56 AM21 °FPartly sunny.14 mph60%30.22 "Hg10 mi
9:56 AM19 °FPartly sunny.9 mph60%30.22 "Hg10 mi
8:56 AM16 °FPartly sunny.9 mph64%30.21 "Hg10 mi
7:56 AM15 °FLight snow. Partly sunny.9 mph71%30.18 "Hg10 mi
6:56 AM16 °FSnow flurries. Partly sunny.13 mph67%30.16 "Hg7 mi
5:56 AM16 °FSnow flurries. Overcast.14 mph70%30.15 "Hg7 mi
4:56 AM16 °FOvercast.13 mph70%30.14 "Hg10 mi
3:56 AM16 °FPassing clouds.15 mph73%30.12 "Hg10 mi
Weather by CustomWeather, © 2016

See weather overviewHow to use our weather pages